Vertical_Velocity
-1 -2 -6 2 -3 -0 -1 4 -0 -0 1 2 -2 -3 -1 2 -8 -5 -5 -1 -1 -1 -0 -2 0 -3 -1 1 1 -0 1 3 3 1 -4 3 0 -4 -2 2 0 0 0 1 -3 -1 0 -1 1
1 2 -5 4 2 -0 -1 -1 2 0 -2 0 2 0 1 -1 -1 -6 -6 -3 -1 1 0 -3 4 3 4 5 -0 9 2 -1 -0 -2 1 -2 -3 -1 -1 3 -1 0 -1 -2 -2 -1 0 1 0
4 1 -1 -0 -4 0 -0 1 -0 -1 -2 -1 -0 -2 -0 0 -1 -2 -1 4 -3 1 0 -0 3 5 1 5 1 0 -2 -2 -1 0 0 2 -1 -2 -1 0 1 1 -1 -2 -2 1 0 1 -1
-2 2 -1 2 -1 -4 -1 -2 0 -2 -1 -1 -0 -1 1 -2 -2 -1 -1 -1 -2 -0 1 -2 2 6 2 -1 2 -2 -1 0 -2 0 -2 -1 -0 -1 0 1 -1 -0 0 -2 0 1 0 -1 -2
0 4 3 -1 0 -0 -0 1 0 4 0 -3 -2 -4 0 -3 -2 -1 1 -1 0 -0 -1 0 2 7 -0 1 -1 -1 -0 -1 -1 0 -0 0 -3 -0 -0 -2 1 1 -1 1 3 -0 -1 -0 0
-2 -2 2 -1 -3 -3 -1 2 1 1 -0 2 -4 -2 -3 -3 -2 -1 1 -1 1 -1 -2 -0 -0 3 1 2 0 1 1 -1 -2 -2 0 -2 -1 -1 -1 -4 -1 1 -0 0 1 -2 -0 -2 0
1 -2 -1 -2 -2 -2 -2 -3 -1 1 0 0 -0 -2 -2 -4 -3 2 -0 -2 -1 -2 1 -1 -1 -0 -0 -1 -0 -1 -2 -3 -0 -0 -1 -1 -1 1 1 0 -1 -1 -3 -6 -1 -1 -2 -2 1
-1 2 -3 -1 -1 -2 -3 -4 -1 2 1 -2 -1 5 -8 -6 -5 -0 1 -1 -1 -1 -2 -1 0 -0 -2 -4 -3 -5 -3 0 0 -3 3 1 1 1 0 1 0 1 -1 9 2 -3 2 7 1
1 0 -3 2 -2 -2 -3 -4 -2 -2 1 -1 -2 1 6 -1 -4 -3 -2 -3 -3 -3 -1 -1 -2 -1 -1 -1 0 -0 0 1 1 -0 -1 -0 -1 -0 1 1 -1 -1 -0 -3 -4 0 -1 -3 -1
-0 0 1 6 5 3 2 -2 -3 -2 -0 -1 -3 -1 -1 1 0 -0 -1 -1 -2 -2 -3 -2 -0 -1 -2 -0 -1 1 -0 1 0 0 0 0 0 0 -1 0 -1 -1 1 1 -0 8 -0 -0 -2
-6 -9 4 5 -2 -2 0 -3 -4 -1 -0 4 3 2 0 2 -0 -0 0 2 2 -1 0 1 -0 -1 -0 1 1 -0 -0 -0 1 1 -0 -0 0 -1 -0 -1 -1 0 -0 -2 -2 -2 -2 -1 -2
-8 1 0 0 5 -3 -2 4 -1 -2 3 0 -0 1 4 0 1 1 0 1 0 0 -1 -1 -1 -1 -1 -2 -1 -2 -1 -0 -0 -1 0 -2 0 -1 -1 -1 -2 1 -3 -1 -2 -3 -2 -0 1
-3 -2 4 -2 5 2 -0 2 3 1 -1 -2 -1 -1 2 2 0 0 -1 -2 -2 -3 -1 -1 -0 1 2 0 1 1 0 -1 -2 -2 -1 -1 -0 -2 -1 -1 3 -2 0 -2 1 2 -0 2 2
-0 2 2 -2 -1 2 5 -1 0 -3 -0 -2 2 3 -1 2 4 -1 -1 1 2 1 1 1 1 -1 0 -1 -2 -1 -1 -2 1 -0 -1 -0 2 -3 6 5 5 -2 0 -1 -2 -1 -1 -4 -2
2 1 -0 2 -2 -2 -2 -2 -7 -1 0 -0 5 -3 -1 -0 -3 2 3 4 1 2 -0 1 0 -1 -1 -1 -0 -0 -1 -1 -0 -0 1 -1 -3 5 -1 1 5 -1 -1 -1 1 -0 -2 -2 -1
1 2 4 -1 2 -2 3 4 1 -0 -2 -0 -1 0 -2 -1 4 -0 1 -2 -1 -2 1 -1 0 1 0 1 1 1 2 -0 -1 -3 -0 4 5 3 -1 2 -1 0 -1 -1 0 0 -1 1 1
-3 -0 -4 2 5 -0 -2 3 -1 0 -1 1 -1 -1 1 -2 -1 -3 -1 -1 -0 -0 -2 -1 -0 -0 -1 -1 1 1 -1 -1 2 -3 -3 3 2 5 5 2 2 2 -1 1 -0 -1 -0 -2 -0
-5 -1 1 4 -8 -2 5 8 0 4 1 0 1 -2 -1 -2 2 1 -0 -0 -1 -1 -0 -1 -3 -3 4 4 2 2 -0 3 1 -1 -2 -0 5 0 -5 1 -1 -1 1 -3 -2 -2 0 -0 1
-0 0 4 -1 -3 -2 -4 -0 -1 2 3 -1 -3 -3 -3 -2 5 1 -1 -0 -1 -3 -3 -2 -1 1 -0 1 -1 -0 -0 -3 -2 -2 3 3 2 2 2 -1 -3 -2 -3 -1 -1 -1 -1 -2 1
-1 2 5 10 1 3 -6 -5 -3 -5 8 5 5 -1 -3 0 -3 -1 -2 -2 -2 0 -0 -1 -0 -1 2 1 2 0 -0 -1 -1 -0 -1 -2 -4 -2 -2 -1 0 0 -0 -0 -1 -0 -2 -1 0
-2 -7 6 -4 -2 1 0 -5 -9 -4 -4 0 2 1 -3 2 1 0 -2 -1 2 -1 0 -0 1 -2 -1 -2 -2 -1 -0 -1 -1 -1 -3 -2 -2 -0 1 1 -1 1 1 0 -2 -1 0 -0 1
-2 -1 7 20 -0 -11 4 -21 -8 -1 2 -8 -1 -3 1 -3 -3 -3 -2 -2 -1 1 -3 -2 1 1 -3 -4 -2 -1 -0 0 0 -2 -3 -1 -0 -0 -0 1 -1 -0 0 1 1 0 0 -0 -0
-3 -4 4 5 6 -1 -2 5 -14 1 -8 -7 -3 -0 -2 -1 -3 -4 -2 1 4 -1 -2 -4 -4 -5 -2 -1 0 0 -3 -3 0 -1 -3 -3 -1 -2 -1 -3 -2 -1 -1 -0 -0 -1 2 0 -0
3 6 9 6 11 9 -4 -1 -8 -12 -13 -2 22 -2 2 1 -2 -3 -1 -1 -4 -3 -3 -4 -6 -3 -3 -2 -3 -2 0 -1 -1 1 -1 -2 -1 1 1 1 -2 -1 -0 1 1 1 -2 -2 -3
8 6 4 10 9 -8 -1 8 -27 -6 -10 2 9 12 12 3 -2 -2 -6 -9 -7 -5 -3 -3 -5 -4 -1 -2 -3 -2 -1 -1 -2 -2 -4 -5 -3 -1 -2 -1 -1 -1 -2 -1 -0 1 2 0 -1
-15 -10 -11 -6 -2 -10 1 -6 -26 -12 4 -2 -4 1 6 0 5 -4 -2 -1 -3 -2 -2 -3 -5 -3 -3 -2 -1 -3 -4 -1 -2 -2 -2 -2 -4 -2 -2 -3 -4 -4 -1 -1 -2 -4 -6 -4 -5
-0 -0 -7 10 -2 6 1 -4 -9 -3 -5 -6 5 -3 -2 -3 -1 8 6 -1 -0 -2 -3 -3 -2 -4 -2 1 2 1 2 1 3 5 4 2 -0 -2 -2 -1 -1 -3 -2 -0 -2 -1 0 -2 -3
4 7 5 5 8 1 -3 -2 -11 -8 -9 -2 -9 -6 -5 2 1 -5 -5 5 2 -1 1 -3 -2 0 4 7 2 -1 0 3 2 -9 1 5 2 2 1 0 -4 -2 1 -1 0 1 -1 -2 -1
4 -2 3 8 7 -1 -1 -22 -16 -16 -0 -16 -10 -13 -2 4 9 -7 3 5 7 7 4 1 -0 1 1 -1 0 2 0 8 11 16 7 0 9 -3 4 5 1 -0 5 2 1 -1 1 2 -2
8 -4 -2 11 -6 -2 0 -23 10 -2 4 9 -8 -4 -4 4 0 0 12 12 -1 -4 -1 -4 4 1 -2 -0 1 -0 10 6 -5 -56 -11 -6 -17 -7 26 -0 4 -1 -4 5 4 -4 -3 5 1
Height
3171 3172 3171 3169 3174 3172 3172 3175 3174 3175 3176 3175 3176 3178 3179 3179 3179 3184 3183 3184 3186 3188 3188 3190 3195 3196 3198 3200 3202 3205 3207 3208 3210 3212 3215 3217 3219 3220 3222 3223 3223 3223 3222 3222 3222 3221 3220 3219 3218
3173 3174 3174 3172 3175 3174 3175 3175 3176 3177 3178 3178 3179 3180 3181 3180 3181 3182 3184 3185 3188 3191 3193 3194 3197 3200 3201 3203 3205 3207 3209 3211 3214 3215 3217 3218 3221 3222 3223 3224 3224 3224 3223 3223 3222 3221 3221 3220 3218
3175 3176 3177 3175 3176 3175 3176 3176 3178 3178 3180 3180 3182 3182 3182 3183 3185 3187 3187 3189 3191 3193 3196 3198 3200 3202 3204 3206 3207 3209 3211 3214 3215 3216 3219 3221 3222 3224 3225 3226 3225 3225 3224 3223 3222 3222 3222 3221 3220
3177 3178 3179 3179 3179 3178 3178 3178 3180 3181 3182 3182 3183 3184 3186 3186 3189 3190 3191 3193 3195 3197 3199 3201 3203 3205 3206 3208 3210 3211 3213 3216 3217 3220 3222 3223 3225 3225 3226 3226 3227 3226 3226 3224 3223 3223 3222 3221 3220
3179 3179 3180 3180 3180 3180 3180 3180 3182 3183 3184 3184 3186 3186 3187 3189 3191 3193 3194 3196 3198 3200 3202 3204 3205 3207 3209 3211 3213 3214 3216 3218 3220 3222 3223 3224 3225 3226 3226 3226 3227 3227 3226 3225 3224 3223 3222 3221 3220
3180 3181 3181 3182 3182 3182 3182 3182 3183 3184 3184 3186 3187 3188 3189 3190 3193 3195 3197 3198 3200 3203 3204 3206 3207 3209 3212 3214 3216 3217 3219 3221 3222 3223 3225 3226 3226 3227 3227 3226 3227 3227 3226 3226 3224 3224 3223 3222 3221
3181 3181 3182 3182 3184 3184 3184 3183 3184 3185 3185 3187 3189 3190 3191 3192 3194 3196 3198 3200 3202 3204 3206 3208 3210 3211 3213 3215 3217 3219 3221 3222 3224 3225 3226 3227 3227 3227 3228 3228 3228 3228 3227 3226 3226 3225 3224 3223 3222
3182 3182 3183 3184 3184 3186 3184 3184 3184 3185 3186 3187 3190 3191 3192 3193 3194 3197 3199 3201 3203 3205 3207 3209 3210 3212 3215 3216 3218 3220 3221 3223 3224 3225 3227 3227 3227 3228 3228 3229 3228 3228 3227 3227 3225 3225 3224 3223 3222
3182 3183 3183 3183 3184 3185 3185 3185 3185 3185 3187 3188 3190 3191 3193 3194 3195 3197 3199 3201 3202 3205 3207 3209 3212 3214 3216 3217 3219 3220 3222 3223 3224 3225 3226 3227 3228 3228 3229 3228 3228 3227 3227 3226 3225 3225 3224 3224 3223
3181 3181 3182 3183 3183 3184 3185 3186 3187 3187 3187 3188 3189 3191 3192 3194 3195 3197 3200 3202 3204 3206 3208 3210 3212 3214 3216 3218 3219 3221 3222 3223 3224 3225 3226 3227 3227 3227 3228 3228 3228 3227 3227 3227 3225 3225 3224 3223 3222
3181 3180 3182 3182 3183 3185 3186 3186 3187 3187 3188 3189 3190 3191 3192 3194 3196 3199 3201 3204 3206 3207 3208 3211 3212 3214 3215 3217 3219 3221 3222 3223 3224 3225 3225 3226 3226 3227 3227 3227 3227 3227 3226 3226 3226 3225 3224 3222 3221
3179 3179 3181 3182 3183 3183 3184 3186 3187 3188 3190 3190 3191 3192 3194 3195 3197 3199 3201 3203 3205 3207 3208 3210 3212 3214 3215 3217 3219 3220 3221 3222 3223 3224 3225 3226 3225 3225 3225 3225 3225 3225 3225 3224 3224 3223 3222 3221 3218
3177 3178 3179 3180 3181 3182 3183 3185 3187 3188 3189 3191 3191 3192 3194 3196 3198 3200 3202 3204 3205 3207 3208 3210 3212 3213 3215 3216 3218 3219 3220 3222 3222 3223 3224 3224 3224 3224 3224 3223 3223 3223 3223 3222 3221 3220 3220 3218 3216
3175 3176 3177 3178 3179 3180 3181 3183 3186 3188 3189 3190 3191 3193 3194 3196 3198 3199 3200 3202 3204 3206 3207 3209 3211 3213 3214 3215 3217 3218 3219 3220 3220 3221 3222 3222 3222 3221 3221 3222 3221 3221 3221 3220 3219 3218 3216 3215 3213
3173 3174 3174 3175 3176 3178 3180 3182 3183 3185 3187 3189 3191 3193 3194 3196 3197 3198 3200 3202 3203 3205 3206 3208 3210 3211 3213 3213 3215 3216 3217 3218 3219 3219 3219 3220 3220 3220 3220 3219 3219 3218 3218 3218 3217 3215 3213 3211 3208
3170 3172 3172 3174 3175 3176 3179 3179 3181 3183 3185 3188 3190 3192 3193 3195 3196 3198 3199 3201 3202 3203 3205 3206 3208 3209 3210 3212 3213 3214 3215 3216 3216 3217 3217 3217 3217 3217 3217 3218 3216 3217 3214 3214 3213 3211 3209 3207 3205
3167 3169 3170 3172 3172 3174 3177 3177 3179 3180 3183 3185 3188 3190 3192 3193 3195 3196 3198 3199 3200 3202 3203 3205 3206 3207 3208 3210 3211 3212 3212 3213 3214 3213 3214 3214 3215 3215 3216 3215 3214 3213 3211 3212 3209 3206 3206 3204 3203
3164 3166 3168 3169 3170 3172 3174 3175 3177 3177 3180 3182 3185 3187 3189 3192 3194 3195 3196 3197 3198 3199 3201 3202 3203 3204 3206 3208 3209 3209 3211 3211 3211 3211 3211 3211 3212 3211 3211 3211 3210 3209 3209 3208 3206 3203 3202 3201 3199
3163 3164 3165 3167 3169 3172 3173 3174 3176 3177 3178 3178 3180 3183 3186 3190 3192 3192 3193 3194 3195 3196 3198 3199 3201 3202 3203 3205 3206 3207 3208 3209 3209 3209 3210 3210 3210 3210 3208 3208 3207 3206 3205 3204 3202 3200 3199 3198 3197
3159 3160 3163 3165 3167 3171 3171 3173 3174 3175 3176 3177 3177 3179 3183 3185 3186 3188 3189 3191 3193 3194 3195 3196 3197 3199 3201 3201 3203 3204 3205 3206 3207 3208 3208 3207 3207 3206 3206 3205 3204 3203 3202 3201 3199 3197 3196 3195 3194
3154 3156 3160 3163 3165 3167 3170 3171 3169 3171 3173 3173 3173 3175 3177 3179 3182 3184 3185 3187 3189 3190 3191 3192 3195 3197 3198 3199 3201 3203 3204 3205 3206 3206 3205 3205 3204 3204 3203 3203 3202 3200 3199 3198 3196 3194 3192 3191 3191
3149 3152 3156 3159 3163 3165 3167 3165 3163 3165 3167 3169 3170 3170 3172 3174 3176 3178 3180 3183 3185 3188 3188 3189 3191 3194 3196 3197 3199 3200 3202 3203 3204 3204 3203 3203 3203 3203 3203 3201 3200 3199 3197 3195 3194 3192 3191 3189 3188
3147 3151 3153 3155 3159 3162 3162 3167 3159 3160 3160 3161 3164 3166 3168 3171 3173 3174 3176 3180 3183 3185 3186 3187 3189 3190 3193 3195 3197 3198 3200 3201 3202 3203 3203 3203 3203 3203 3202 3201 3199 3198 3195 3193 3191 3189 3188 3187 3186
3145 3148 3150 3152 3157 3156 3157 3159 3153 3153 3155 3156 3157 3161 3164 3166 3169 3172 3174 3177 3179 3181 3183 3184 3186 3188 3191 3193 3194 3196 3198 3199 3200 3202 3202 3202 3201 3201 3201 3200 3199 3196 3194 3191 3189 3186 3185 3183 3183
3138 3143 3147 3150 3150 3147 3151 3152 3145 3148 3150 3151 3152 3153 3159 3162 3165 3168 3169 3171 3174 3176 3180 3182 3183 3185 3188 3190 3192 3194 3196 3198 3198 3200 3200 3200 3200 3200 3200 3199 3197 3194 3190 3188 3186 3184 3183 3181 3180
3128 3135 3134 3139 3140 3143 3144 3141 3137 3144 3146 3145 3147 3148 3151 3156 3159 3162 3165 3168 3170 3173 3176 3178 3180 3182 3184 3187 3189 3191 3193 3196 3197 3197 3198 3198 3198 3198 3197 3196 3195 3192 3188 3186 3184 3182 3180 3178 3177
3122 3122 3133 3134 3135 3136 3133 3134 3136 3139 3140 3141 3142 3144 3147 3149 3152 3155 3160 3162 3165 3169 3172 3174 3177 3178 3180 3183 3185 3187 3189 3191 3193 3194 3194 3194 3195 3195 3194 3193 3191 3189 3186 3184 3182 3179 3176 3174 3173
3114 3121 3125 3125 3125 3128 3127 3130 3130 3134 3136 3138 3138 3140 3142 3143 3147 3150 3153 3156 3161 3164 3168 3170 3172 3174 3177 3179 3182 3184 3185 3187 3188 3189 3190 3190 3191 3191 3191 3189 3187 3186 3184 3182 3179 3176 3174 3171 3169
3106 3109 3113 3116 3117 3116 3121 3120 3126 3129 3132 3133 3135 3136 3136 3137 3141 3144 3146 3151 3156 3160 3163 3165 3167 3169 3171 3175 3177 3179 3180 3182 3185 3186 3188 3188 3187 3189 3187 3186 3184 3183 3180 3177 3174 3173 3171 3168 3166
3098 3100 3105 3107 3110 3113 3115 3115 3120 3123 3126 3128 3130 3131 3130 3131 3133 3139 3143 3147 3150 3153 3157 3159 3162 3164 3168 3171 3172 3174 3175 3177 3180 3182 3181 3182 3182 3182 3183 3183 3181 3180 3177 3174 3170 3168 3167 3165 3163